Time,TemperatureF,DewpointF,PressureIn,WindDirection,WindDirectionDegrees,WindSpeedMPH,WindSpeedGustMPH,Humidity,HourlyPrecipIn,Conditions,Clouds,dailyrainin,SoftwareType,DateUTC
2013-01-26 00:00:00,22.6,18.8,30.16,SE,133,0.0,0.0,85,0.00,,,0.00,Wunderground v.1.15,2013-01-26 05:00:00,
2013-01-26 00:10:00,22.5,18.7,30.16,SE,133,0.0,0.0,85,0.00,,,0.00,Wunderground v.1.15,2013-01-26 05:10:00,
2013-01-26 00:20:00,22.4,18.8,30.16,SE,133,0.0,0.0,86,0.00,,,0.00,Wunderground v.1.15,2013-01-26 05:20:00,
2013-01-26 00:30:00,22.2,18.9,30.16,SE,133,0.0,0.0,87,0.00,,,0.00,Wunderground v.1.15,2013-01-26 05:30:00,
2013-01-26 00:40:00,22.2,18.9,30.15,SE,133,0.0,3.0,87,0.00,,,0.00,Wunderground v.1.15,2013-01-26 05:40:00,
2013-01-26 00:50:00,22.1,18.8,30.15,SE,133,0.0,3.0,87,0.00,,,0.00,Wunderground v.1.15,2013-01-26 05:50:00,
2013-01-26 01:00:00,22.1,18.8,30.15,SE,133,0.0,1.0,87,0.00,,,0.00,Wunderground v.1.15,2013-01-26 06:00:00,
2013-01-26 01:10:00,22.2,18.9,30.16,SE,133,0.0,0.0,87,0.00,,,0.00,Wunderground v.1.15,2013-01-26 06:10:00,
2013-01-26 01:20:00,22.3,19.0,30.16,SE,133,0.0,0.0,87,0.00,,,0.00,Wunderground v.1.15,2013-01-26 06:20:00,
2013-01-26 01:30:00,22.3,19.3,30.16,SE,133,0.0,0.0,88,0.00,,,0.00,Wunderground v.1.15,2013-01-26 06:30:00,
2013-01-26 01:40:00,22.4,19.4,30.16,SE,133,0.0,1.0,88,0.00,,,0.00,Wunderground v.1.15,2013-01-26 06:40:00,
2013-01-26 01:50:00,22.4,19.4,30.16,SE,133,0.0,1.0,88,0.00,,,0.00,Wunderground v.1.15,2013-01-26 06:50:00,
2013-01-26 02:00:00,22.5,19.2,30.16,SE,133,0.0,2.0,87,0.00,,,0.00,Wunderground v.1.15,2013-01-26 07:00:00,
2013-01-26 02:10:00,22.5,19.2,30.17,ENE,74,1.0,2.0,87,0.00,,,0.00,Wunderground v.1.15,2013-01-26 07:10:00,
2013-01-26 02:20:00,22.5,19.2,30.17,NNE,29,1.0,2.0,87,0.00,,,0.00,Wunderground v.1.15,2013-01-26 07:20:00,
2013-01-26 02:30:00,22.5,19.2,30.17,NNE,29,1.0,2.0,87,0.00,,,0.00,Wunderground v.1.15,2013-01-26 07:30:00,
2013-01-26 02:40:00,22.4,19.1,30.17,NNE,29,1.0,1.0,87,0.00,,,0.00,Wunderground v.1.15,2013-01-26 07:40:00,
2013-01-26 02:50:00,22.4,19.1,30.17,NNE,29,1.0,1.0,87,0.00,,,0.00,Wunderground v.1.15,2013-01-26 07:50:00,
2013-01-26 03:00:00,22.3,19.0,30.17,NNE,29,1.0,1.0,87,0.00,,,0.00,Wunderground v.1.15,2013-01-26 08:00:00,
2013-01-26 03:10:00,22.3,19.0,30.17,NNW,346,2.0,2.0,87,0.00,,,0.00,Wunderground v.1.15,2013-01-26 08:10:00,
2013-01-26 03:20:00,22.3,19.0,30.18,NNW,346,1.0,2.0,87,0.00,,,0.00,Wunderground v.1.15,2013-01-26 08:20:00,
2013-01-26 03:30:00,22.3,19.0,30.18,NNW,346,1.0,1.0,87,0.00,,,0.00,Wunderground v.1.15,2013-01-26 08:30:00,
2013-01-26 03:40:00,22.2,18.9,30.18,NNW,346,1.0,3.0,87,0.00,,,0.00,Wunderground v.1.15,2013-01-26 08:40:00,
2013-01-26 03:50:00,22.2,18.9,30.17,NNW,346,0.0,3.0,87,0.00,,,0.00,Wunderground v.1.15,2013-01-26 08:50:00,
2013-01-26 04:00:00,22.3,19.0,30.18,NNW,346,0.0,0.0,87,0.00,,,0.00,Wunderground v.1.15,2013-01-26 09:00:00,
2013-01-26 04:10:00,22.3,19.0,30.18,NNW,346,0.0,0.0,87,0.00,,,0.00,Wunderground v.1.15,2013-01-26 09:10:00,
2013-01-26 04:20:00,22.3,19.0,30.19,NNW,346,0.0,0.0,87,0.00,,,0.00,Wunderground v.1.15,2013-01-26 09:20:00,
2013-01-26 04:30:00,22.4,19.1,30.19,NNW,346,0.0,0.0,87,0.00,,,0.00,Wunderground v.1.15,2013-01-26 09:30:00,
2013-01-26 04:40:00,22.3,19.0,30.19,NNW,346,0.0,5.0,87,0.00,,,0.00,Wunderground v.1.15,2013-01-26 09:40:00,
2013-01-26 04:50:00,22.4,19.1,30.20,NNW,346,0.0,5.0,87,0.00,,,0.00,Wunderground v.1.15,2013-01-26 09:50:00,
2013-01-26 05:00:00,22.3,19.0,30.20,NNW,346,0.0,0.0,87,0.00,,,0.00,Wunderground v.1.15,2013-01-26 10:00:00,
2013-01-26 05:10:00,22.3,19.0,30.20,NNW,346,0.0,1.0,87,0.00,,,0.00,Wunderground v.1.15,2013-01-26 10:10:00,
2013-01-26 05:20:00,22.4,19.1,30.21,NNW,346,0.0,1.0,87,0.00,,,0.00,Wunderground v.1.15,2013-01-26 10:20:00,
2013-01-26 05:30:00,22.3,19.0,30.22,NNW,346,0.0,0.0,87,0.00,,,0.00,Wunderground v.1.15,2013-01-26 10:30:00,
2013-01-26 05:40:00,22.2,18.9,30.22,NNW,346,0.0,1.0,87,0.00,,,0.00,Wunderground v.1.15,2013-01-26 10:40:00,
2013-01-26 05:50:00,22.1,18.8,30.22,NNW,346,1.0,1.0,87,0.00,,,0.00,Wunderground v.1.15,2013-01-26 10:50:00,
2013-01-26 06:00:00,22.0,19.0,30.22,NNW,346,0.0,1.0,88,0.00,,,0.00,Wunderground v.1.15,2013-01-26 11:00:00,
2013-01-26 06:10:00,21.9,18.9,30.23,NNW,346,0.0,1.0,88,0.00,,,0.00,Wunderground v.1.15,2013-01-26 11:10:00,
2013-01-26 06:20:00,21.7,18.7,30.24,NNW,346,1.0,1.0,88,0.00,,,0.00,Wunderground v.1.15,2013-01-26 11:20:00,
2013-01-26 06:30:00,21.7,18.7,30.24,NNW,346,0.0,0.0,88,0.00,,,0.00,Wunderground v.1.15,2013-01-26 11:30:00,
2013-01-26 06:40:00,21.6,18.6,30.24,NNW,346,0.0,2.0,88,0.00,,,0.00,Wunderground v.1.15,2013-01-26 11:40:00,
2013-01-26 06:50:00,21.5,18.8,30.25,NNW,346,0.0,2.0,89,0.00,,,0.00,Wunderground v.1.15,2013-01-26 11:50:00,
2013-01-26 07:00:00,21.3,18.6,30.25,NNW,346,0.0,0.0,89,0.00,,,0.00,Wunderground v.1.15,2013-01-26 12:00:00,
2013-01-26 07:10:00,21.2,18.2,30.25,NNW,346,0.0,0.0,88,0.00,,,0.00,Wunderground v.1.15,2013-01-26 12:10:00,
2013-01-26 07:20:00,20.9,18.2,30.26,NNW,346,0.0,0.0,89,0.00,,,0.00,Wunderground v.1.15,2013-01-26 12:20:00,
2013-01-26 07:30:00,20.8,18.1,30.26,NNW,346,0.0,0.0,89,0.00,,,0.00,Wunderground v.1.15,2013-01-26 12:30:00,
2013-01-26 07:40:00,20.8,18.3,30.27,NNW,346,1.0,2.0,90,0.00,,,0.00,Wunderground v.1.15,2013-01-26 12:40:00,
2013-01-26 07:50:00,21.0,18.5,30.27,NNW,346,1.0,1.0,90,0.00,,,0.00,Wunderground v.1.15,2013-01-26 12:50:00,
2013-01-26 08:00:00,21.5,19.0,30.27,NNW,346,1.0,1.0,90,0.00,,,0.00,Wunderground v.1.15,2013-01-26 13:00:00,
2013-01-26 08:10:00,21.8,19.1,30.28,NNW,346,1.0,1.0,89,0.00,,,0.00,Wunderground v.1.15,2013-01-26 13:10:00,
2013-01-26 08:20:00,22.2,19.2,30.28,NNW,346,1.0,2.0,88,0.00,,,0.00,Wunderground v.1.15,2013-01-26 13:20:00,
2013-01-26 08:30:00,22.6,19.3,30.28,NNW,344,1.0,1.0,87,0.00,,,0.00,Wunderground v.1.15,2013-01-26 13:30:00,
2013-01-26 08:40:00,22.9,19.6,30.29,NNW,347,1.0,3.0,87,0.00,,,0.00,Wunderground v.1.15,2013-01-26 13:40:00,
2013-01-26 08:50:00,23.1,19.5,30.29,NNW,337,2.0,2.0,86,0.00,,,0.00,Wunderground v.1.15,2013-01-26 13:50:00,
2013-01-26 09:00:00,23.4,19.8,30.30,NNW,337,1.0,1.0,86,0.00,,,0.00,Wunderground v.1.15,2013-01-26 14:00:00,
2013-01-26 09:10:00,23.8,19.9,30.30,NNW,337,0.0,1.0,85,0.00,,,0.00,Wunderground v.1.15,2013-01-26 14:10:00,
2013-01-26 09:20:00,24.2,20.3,30.30,NNW,337,1.0,2.0,85,0.00,,,0.00,Wunderground v.1.15,2013-01-26 14:20:00,
2013-01-26 09:30:00,24.7,20.3,30.31,NNW,337,1.0,1.0,83,0.00,,,0.00,Wunderground v.1.15,2013-01-26 14:30:00,
2013-01-26 09:40:00,25.3,20.6,30.32,NNW,331,0.0,4.0,82,0.00,,,0.00,Wunderground v.1.15,2013-01-26 14:40:00,
2013-01-26 09:50:00,25.9,20.9,30.32,NNW,331,1.0,4.0,81,0.00,,,0.00,Wunderground v.1.15,2013-01-26 14:50:00,
2013-01-26 10:00:00,26.7,21.4,30.32,ENE,76,1.0,1.0,80,0.00,,,0.00,Wunderground v.1.15,2013-01-26 15:00:00,
2013-01-26 10:10:00,27.3,21.9,30.33,SSE,151,1.0,1.0,80,0.00,,,0.00,Wunderground v.1.15,2013-01-26 15:10:00,
2013-01-26 10:20:00,27.7,22.3,30.33,SSE,151,1.0,1.0,80,0.00,,,0.00,Wunderground v.1.15,2013-01-26 15:20:00,
2013-01-26 10:30:00,28.3,22.0,30.33,SSE,164,1.0,1.0,77,0.00,,,0.00,Wunderground v.1.15,2013-01-26 15:30:00,
2013-01-26 10:40:00,28.9,22.6,30.33,SSE,149,1.0,2.0,77,0.00,,,0.00,Wunderground v.1.15,2013-01-26 15:40:00,
2013-01-26 10:50:00,29.1,22.5,30.33,SSE,150,1.0,2.0,76,0.00,,,0.00,Wunderground v.1.15,2013-01-26 15:50:00,
2013-01-26 11:00:00,29.4,22.8,30.32,East,93,1.0,1.0,76,0.00,,,0.00,Wunderground v.1.15,2013-01-26 16:00:00,
2013-01-26 11:10:00,30.1,23.1,30.33,East,93,0.0,1.0,75,0.00,,,0.00,Wunderground v.1.15,2013-01-26 16:10:00,
2013-01-26 11:20:00,30.6,23.0,30.32,East,93,1.0,1.0,73,0.00,,,0.00,Wunderground v.1.15,2013-01-26 16:20:00,
2013-01-26 11:30:00,31.4,23.7,30.32,ESE,120,1.0,1.0,73,0.00,,,0.00,Wunderground v.1.15,2013-01-26 16:30:00,
2013-01-26 11:40:00,32.4,24.0,30.32,ESE,120,0.0,3.0,71,0.00,,,0.00,Wunderground v.1.15,2013-01-26 16:40:00,
2013-01-26 11:50:00,32.4,24.4,30.31,West,275,1.0,3.0,72,0.00,,,0.00,Wunderground v.1.15,2013-01-26 16:50:00,
2013-01-26 12:00:00,32.7,23.6,30.31,WNW,287,1.0,1.0,69,0.00,,,0.00,Wunderground v.1.15,2013-01-26 17:00:00,
2013-01-26 12:10:00,33.2,23.8,30.30,West,275,1.0,1.0,68,0.00,,,0.00,Wunderground v.1.15,2013-01-26 17:10:00,
2013-01-26 12:20:00,33.5,24.1,30.30,WNW,290,1.0,1.0,68,0.00,,,0.00,Wunderground v.1.15,2013-01-26 17:20:00,
2013-01-26 12:30:00,33.9,24.4,30.29,WSW,239,1.0,1.0,68,0.00,,,0.00,Wunderground v.1.15,2013-01-26 17:30:00,
2013-01-26 12:40:00,34.2,24.4,30.29,South,182,1.0,1.0,67,0.00,,,0.00,Wunderground v.1.15,2013-01-26 17:40:00,
2013-01-26 12:50:00,34.4,24.6,30.28,West,261,1.0,2.0,67,0.00,,,0.00,Wunderground v.1.15,2013-01-26 17:50:00,
2013-01-26 13:00:00,34.6,25.1,30.28,West,261,1.0,1.0,68,0.00,,,0.00,Wunderground v.1.15,2013-01-26 18:00:00,
2013-01-26 13:10:00,35.2,25.3,30.28,SW,228,1.0,1.0,67,0.00,,,0.00,Wunderground v.1.15,2013-01-26 18:10:00,
2013-01-26 13:20:00,35.7,25.1,30.28,SW,220,1.0,2.0,65,0.00,,,0.00,Wunderground v.1.15,2013-01-26 18:20:00,
2013-01-26 13:30:00,35.6,25.0,30.28,South,188,3.0,3.0,65,0.00,,,0.00,Wunderground v.1.15,2013-01-26 18:30:00,
2013-01-26 13:40:00,35.5,24.9,30.27,South,171,3.0,3.0,65,0.00,,,0.00,Wunderground v.1.15,2013-01-26 18:40:00,
2013-01-26 13:50:00,35.7,25.8,30.28,SSW,213,3.0,4.0,67,0.00,,,0.00,Wunderground v.1.15,2013-01-26 18:50:00,
2013-01-26 14:00:00,35.7,25.1,30.28,SSE,157,3.0,3.0,65,0.00,,,0.00,Wunderground v.1.15,2013-01-26 19:00:00,
2013-01-26 14:10:00,36.1,25.5,30.28,SE,132,2.0,2.0,65,0.00,,,0.00,Wunderground v.1.15,2013-01-26 19:10:00,
2013-01-26 14:20:00,36.4,25.0,30.28,SSE,149,3.0,4.0,63,0.00,,,0.00,Wunderground v.1.15,2013-01-26 19:20:00,
2013-01-26 14:30:00,36.2,25.2,30.28,SSE,161,3.0,3.0,64,0.00,,,0.00,Wunderground v.1.15,2013-01-26 19:30:00,
2013-01-26 14:40:00,36.6,25.9,30.28,SE,145,1.0,6.0,65,0.00,,,0.00,Wunderground v.1.15,2013-01-26 19:40:00,
2013-01-26 14:50:00,36.5,24.7,30.28,SE,146,2.0,2.0,62,0.00,,,0.00,Wunderground v.1.15,2013-01-26 19:50:00,
2013-01-26 15:00:00,36.7,25.3,30.28,South,188,1.0,2.0,63,0.00,,,0.00,Wunderground v.1.15,2013-01-26 20:00:00,
2013-01-26 15:10:00,36.5,24.3,30.28,SE,136,2.0,2.0,61,0.00,,,0.00,Wunderground v.1.15,2013-01-26 20:10:00,
2013-01-26 15:20:00,36.7,24.9,30.28,SE,146,1.0,1.0,62,0.00,,,0.00,Wunderground v.1.15,2013-01-26 20:20:00,
2013-01-26 15:30:00,36.7,25.3,30.29,SSE,151,1.0,1.0,63,0.00,,,0.00,Wunderground v.1.15,2013-01-26 20:30:00,
2013-01-26 15:40:00,36.7,24.5,30.29,SE,145,1.0,1.0,61,0.00,,,0.00,Wunderground v.1.15,2013-01-26 20:40:00,
2013-01-26 15:50:00,36.8,25.0,30.29,South,173,0.0,7.0,62,0.00,,,0.00,Wunderground v.1.15,2013-01-26 20:50:00,
2013-01-26 16:00:00,36.9,24.3,30.29,South,173,0.0,0.0,60,0.00,,,0.00,Wunderground v.1.15,2013-01-26 21:00:00,
2013-01-26 16:10:00,36.9,24.7,30.29,South,173,0.0,0.0,61,0.00,,,0.00,Wunderground v.1.15,2013-01-26 21:10:00,
2013-01-26 16:20:00,36.8,24.6,30.30,South,173,0.0,0.0,61,0.00,,,0.00,Wunderground v.1.15,2013-01-26 21:20:00,
2013-01-26 16:30:00,36.7,24.5,30.30,South,173,0.0,1.0,61,0.00,,,0.00,Wunderground v.1.15,2013-01-26 21:30:00,
2013-01-26 16:40:00,36.6,24.8,30.31,South,173,0.0,5.0,62,0.00,,,0.00,Wunderground v.1.15,2013-01-26 21:40:00,
2013-01-26 16:50:00,36.5,24.7,30.31,South,173,0.0,5.0,62,0.00,,,0.00,Wunderground v.1.15,2013-01-26 21:50:00,
2013-01-26 17:00:00,36.2,24.4,30.32,South,173,0.0,0.0,62,0.00,,,0.00,Wunderground v.1.15,2013-01-26 22:00:00,
2013-01-26 17:10:00,36.0,24.6,30.32,South,173,0.0,0.0,63,0.00,,,0.00,Wunderground v.1.15,2013-01-26 22:10:00,
2013-01-26 17:20:00,35.6,24.6,30.33,South,173,0.0,0.0,64,0.00,,,0.00,Wunderground v.1.15,2013-01-26 22:20:00,
2013-01-26 17:30:00,35.1,24.1,30.33,South,173,0.0,0.0,64,0.00,,,0.00,Wunderground v.1.15,2013-01-26 22:30:00,
2013-01-26 17:40:00,34.8,24.6,30.33,South,173,0.0,2.0,66,0.00,,,0.00,Wunderground v.1.15,2013-01-26 22:40:00,
2013-01-26 17:50:00,34.3,24.5,30.34,South,173,0.0,2.0,67,0.00,,,0.00,Wunderground v.1.15,2013-01-26 22:50:00,
2013-01-26 18:00:00,33.7,24.6,30.35,South,173,0.0,0.0,69,0.00,,,0.00,Wunderground v.1.15,2013-01-26 23:00:00,
2013-01-26 18:10:00,33.0,24.3,30.35,South,173,0.0,0.0,70,0.00,,,0.00,Wunderground v.1.15,2013-01-26 23:10:00,
2013-01-26 18:20:00,32.4,24.0,30.36,South,173,0.0,0.0,71,0.00,,,0.00,Wunderground v.1.15,2013-01-26 23:20:00,
2013-01-26 18:30:00,31.8,24.1,30.36,South,173,0.0,0.0,73,0.00,,,0.00,Wunderground v.1.15,2013-01-26 23:30:00,
2013-01-26 18:40:00,31.4,23.7,30.37,NNW,335,1.0,1.0,73,0.00,,,0.00,Wunderground v.1.15,2013-01-26 23:40:00,
2013-01-26 18:50:00,31.1,23.8,30.37,NNW,335,0.0,2.0,74,0.00,,,0.00,Wunderground v.1.15,2013-01-26 23:50:00,
2013-01-26 19:00:00,30.8,23.8,30.37,NNW,335,1.0,1.0,75,0.00,,,0.00,Wunderground v.1.15,2013-01-27 00:00:00,
2013-01-26 19:10:00,30.8,23.8,30.37,NNW,343,1.0,2.0,75,0.00,,,0.00,Wunderground v.1.15,2013-01-27 00:10:00,
2013-01-26 19:20:00,30.7,24.0,30.38,NNW,343,1.0,1.0,76,0.00,,,0.00,Wunderground v.1.15,2013-01-27 00:20:00,
2013-01-26 19:30:00,30.5,23.8,30.39,NNW,343,0.0,0.0,76,0.00,,,0.00,Wunderground v.1.15,2013-01-27 00:30:00,
2013-01-26 19:40:00,30.2,23.5,30.39,NNW,343,0.0,3.0,76,0.00,,,0.00,Wunderground v.1.15,2013-01-27 00:40:00,
2013-01-26 19:50:00,29.9,23.6,30.39,NNW,343,0.0,3.0,77,0.00,,,0.00,Wunderground v.1.15,2013-01-27 00:50:00,
2013-01-26 20:00:00,29.6,23.6,30.40,NNW,343,0.0,0.0,78,0.00,,,0.00,Wunderground v.1.15,2013-01-27 01:00:00,
2013-01-26 20:10:00,29.4,23.7,30.40,NNW,343,0.0,0.0,79,0.00,,,0.00,Wunderground v.1.15,2013-01-27 01:10:00,
2013-01-26 20:20:00,29.2,23.5,30.40,NNW,343,0.0,0.0,79,0.00,,,0.00,Wunderground v.1.15,2013-01-27 01:20:00,
2013-01-26 20:30:00,28.7,23.3,30.41,NNW,343,0.0,0.0,80,0.00,,,0.00,Wunderground v.1.15,2013-01-27 01:30:00,
2013-01-26 20:40:00,28.1,23.0,30.41,NNW,343,0.0,3.0,81,0.00,,,0.00,Wunderground v.1.15,2013-01-27 01:40:00,
2013-01-26 20:50:00,27.7,22.9,30.42,NNW,343,0.0,3.0,82,0.00,,,0.00,Wunderground v.1.15,2013-01-27 01:50:00,
2013-01-26 21:00:00,27.4,22.9,30.42,NNW,343,0.0,0.0,83,0.00,,,0.00,Wunderground v.1.15,2013-01-27 02:00:00,
2013-01-26 21:10:00,27.1,22.6,30.43,NNW,343,0.0,0.0,83,0.00,,,0.00,Wunderground v.1.15,2013-01-27 02:10:00,
2013-01-26 21:20:00,26.8,22.6,30.43,NNW,343,0.0,1.0,84,0.00,,,0.00,Wunderground v.1.15,2013-01-27 02:20:00,
2013-01-26 21:30:00,26.8,22.6,30.44,NNW,343,0.0,0.0,84,0.00,,,0.00,Wunderground v.1.15,2013-01-27 02:30:00,
2013-01-26 21:40:00,26.6,22.4,30.45,NNW,343,0.0,1.0,84,0.00,,,0.00,Wunderground v.1.15,2013-01-27 02:40:00,
2013-01-26 21:50:00,26.5,22.6,30.46,NNW,343,0.0,1.0,85,0.00,,,0.00,Wunderground v.1.15,2013-01-27 02:50:00,
2013-01-26 22:00:00,26.6,22.4,30.46,NNW,343,0.0,0.0,84,0.00,,,0.00,Wunderground v.1.15,2013-01-27 03:00:00,
2013-01-26 22:10:00,26.6,22.4,30.47,NNW,343,0.0,0.0,84,0.00,,,0.00,Wunderground v.1.15,2013-01-27 03:10:00,
2013-01-26 22:20:00,26.5,22.3,30.47,NNW,343,0.0,1.0,84,0.00,,,0.00,Wunderground v.1.15,2013-01-27 03:20:00,
2013-01-26 22:30:00,26.2,22.3,30.47,NNW,343,1.0,1.0,85,0.00,,,0.00,Wunderground v.1.15,2013-01-27 03:30:00,
2013-01-26 22:40:00,25.6,22.0,30.48,NNW,343,0.0,1.0,86,0.00,,,0.00,Wunderground v.1.15,2013-01-27 03:40:00,
2013-01-26 22:50:00,25.2,21.9,30.48,NNW,343,0.0,1.0,87,0.00,,,0.00,Wunderground v.1.15,2013-01-27 03:50:00,
2013-01-26 23:00:00,24.7,21.4,30.49,NNW,343,0.0,0.0,87,0.00,,,0.00,Wunderground v.1.15,2013-01-27 04:00:00,
2013-01-26 23:10:00,24.4,21.4,30.49,NNW,343,0.0,0.0,88,0.00,,,0.00,Wunderground v.1.15,2013-01-27 04:10:00,
2013-01-26 23:20:00,24.2,21.2,30.50,NNW,343,0.0,0.0,88,0.00,,,0.00,Wunderground v.1.15,2013-01-27 04:20:00,
2013-01-26 23:30:00,23.9,21.1,30.50,NNW,343,0.0,0.0,89,0.00,,,0.00,Wunderground v.1.15,2013-01-27 04:30:00,
2013-01-26 23:40:00,23.7,20.9,30.50,NNW,343,0.0,2.0,89,0.00,,,0.00,Wunderground v.1.15,2013-01-27 04:40:00,
2013-01-26 23:50:00,23.6,21.1,30.51,NNW,343,0.0,2.0,90,0.00,,,0.00,Wunderground v.1.15,2013-01-27 04:50:00,